Regional Weather Roundup
Issued by NWS Northern Indiana

Home | Current Version | Previous Version | Graphics & Text | Print | Product List | Glossary On
Versions: 1 2 3 4 5 6 7 8 9 10 11 12 13 14 15 16 17 18 19 20 21 22 23 24 25 26 27 28 29 30 31 32 33 34 35 36 37 38 39 40 41 42 43 44 45 46 47 48 49 50
000
ASUS43 KIWX 281410
RWRIWX

KIWX WEATHER ROUNDUP
NATIONAL WEATHER SERVICE NORTHERN INDIANA
900 AM EST WED JAN 28 2015

NOTE: "FAIR" INDICATES FEW OR NO CLOUDS BELOW 12,000 FEET WITH NO
SIGNIFICANT WEATHER AND/OR OBSTRUCTIONS TO VISIBILITY.

* THESE STATIONS ARE NOT UNDER NWS QUALITY CONTROL. THEY ALSO MAY NOT
  REPORT WEATHER SUCH AS PRECIPITATION OR FOG.

INZ001>027-281500-
NORTHERN INDIANA

CITY           SKY/WX    TMP DP  RH WIND       PRES   REMARKS
GARY*          PTCLDY    23  12  63 SE9       30.32R WCI  13
VALPARAISO     PTCLDY    20  12  71 S5        30.31R WCI  13
MICHIGAN CITY* CLEAR     23  10  58 S5        30.31F WCI  17
LAPORTE*       PTCLDY    22  15  74 S3        30.31S
KNOX*          PTCLDY    19   4  52 SE7       30.30F WCI  10
SOUTH BEND     PTCLDY    19  12  74 S7        30.32S WCI  10
ELKHART*       CLEAR     14   9  79 CALM      30.33S
GOSHEN         PTCLDY    15  10  80 SE7       30.33R WCI   5
MONTICELLO*    PTCLDY    18  12  77 SE5       30.32R WCI  11
LOGANSPORT*    PTCLDY    14  10  85 E7        30.33S WCI   4
ROCHESTER*     PTCLDY    19  16  86 SE5       30.33S WCI  13
WARSAW*        PTCLDY    12  10  92 E3        30.33R
ANGOLA*        CLEAR      7   3  85 CALM      30.32R
FORT WAYNE     PTCLDY    10   7  87 E3        30.35R
HUNTINGTON*    PTCLDY     9   3  78 CALM      30.34S
PERU/GRISSOM   PTCLDY    13   8  80 SE6       30.33R WCI   4
MARION*        PTCLDY    14  11  87 SE6       30.35R WCI   5

$$
INZ028>050-281500-
CENTRAL INDIANA

CITY           SKY/WX    TMP DP  RH WIND       PRES   REMARKS
LAFAYETTE      PTCLDY    20  16  84 CALM      30.32S
KOKOMO*        PTCLDY    14  10  85 SE3       30.34R
MUNCIE*        MOSUNNY   12   9  87 SE3       30.34S FOG
INDIANAPOLIS   PTCLDY    18  14  84 SE8       30.34R WCI   8

$$
MIZ043>046-050>051-056>058-064>065-071>073-077>080-281500-
SOUTHWEST LOWER MICHIGAN

CITY           SKY/WX    TMP DP  RH WIND       PRES   REMARKS
BATTLE CREEK   PTCLDY    14   8  77 S7        30.31S WCI   4
BENTON HARBOR  PTCLDY    18  12  77 S7        30.31F WCI   9
COLDWATER*     PTCLDY    10   7  89 CALM      30.33R
HILLSDALE*     MOCLDY    10   7  89 CALM      30.32R
HOLLAND        PTCLDY    17  11  77 S8        30.31S WCI   7
GRAND RAPIDS   PTCLDY    13   8  81 S7        30.30F WCI   3
KALAMAZOO      PTCLDY    12   8  84 CALM      30.31F
STURGIS*       FAIR      12  10  92 CALM      30.32S
THREE RIVERS*  FAIR      12   9  87 CALM      30.32F

$$
OHZ001>008-015>018-024>025-281500-
NORTHWEST OHIO

CITY           SKY/WX    TMP DP  RH WIND       PRES   REMARKS
WAUSEON*       FAIR      10   7  85 CALM      30.36R
DEFIANCE       MOSUNNY    6   3  87 CALM      30.38R FOG
FINDLAY        MOSUNNY    1  -2  87 CALM      30.35R FOG
TOLEDO EXPRESS SUNNY      8   5  87 CALM      30.36R
TOLEDO METCALF MOSUNNY   11   7  84 CALM      30.38R
LIMA           MOSUNNY    4   1  88 S5        30.35R FOG     WCI  -5

$$
AND FOR LAKE MICHIGAN COASTAL AND OPEN LAKE BUOY OBSERVATIONS

STATION/POSITION TEMP    WIND        PRES    VSBY  WAVE
                 AIR SEA DIR/SP/G                  HT/PER
                 (F)     (DEG/KT/KT) (MB)    (MI)  (FT/S)
CALUMET HARBOR    22     160/  6/  9   N/A
MICHIGAN CITY     22     140/  7/ 10   N/A
SAINT JOSEPH      20     130/  4/  7 1027.1S
SAINT JOSEPH CG                      1028.0      6   0

$$
&&


USA.gov is the U.S. government's official web portal to all federal, state and local government web resources and services.